| time (UTC) | temp F | wind direction | speed MPH | gust MPH | rain 1hr in | rain 24hr in | rain mn in | humidity % | barometer mb |
| 20260509223503 | 71 | 29 | 3.0 | 12.0 | 0.00 | 0.00 | 0.00 | 43 | 1010.5 |
| 20260509223003 | 71 | 13 | 2.0 | 12.0 | 0.00 | 0.00 | 0.00 | 43 | 1010.4 |
| 20260509222503 | 72 | 346 | 3.0 | 9.0 | 0.00 | 0.00 | 0.00 | 44 | 1010.4 |
| 20260509222212 | 72 | 359 | 3.0 | 9.0 | 0.00 | 0.00 | 0.00 | 45 | 1010.3 |
| 20260509221503 | 71 | 357 | 4.0 | 11.0 | 0.00 | 0.00 | 0.00 | 44 | 1010.2 |
| 20260509221003 | 71 | 352 | 3.0 | 11.0 | 0.00 | 0.00 | 0.00 | 43 | 1010.2 |
| 20260509220503 | 71 | 360 | 3.0 | 9.0 | 0.00 | 0.00 | 0.00 | 43 | 1010.1 |
| 20260509220003 | 71 | 18 | 4.0 | 11.0 | 0.00 | 0.00 | 0.00 | 43 | 1010.1 |
| 20260509215503 | 70 | 23 | 4.0 | 11.0 | 0.00 | 0.00 | 0.00 | 42 | 1010.1 |
| 20260509215003 | 71 | 30 | 3.0 | 10.0 | 0.00 | 0.00 | 0.00 | 42 | 1010.1 |
| 20260509214503 | 70 | 38 | 2.0 | 10.0 | 0.00 | 0.00 | 0.00 | 44 | 1010.0 |
| 20260509214003 | 70 | 35 | 3.0 | 10.0 | 0.00 | 0.00 | 0.00 | 42 | 1010.0 |
| 20260509213503 | 71 | 30 | 3.0 | 10.0 | 0.00 | 0.00 | 0.00 | 43 | 1010.0 |
| 20260509213003 | 71 | 9 | 2.0 | 6.0 | 0.00 | 0.00 | 0.00 | 40 | 1010.0 |
| 20260509212503 | 71 | 355 | 3.0 | 11.0 | 0.00 | 0.00 | 0.00 | 41 | 1009.9 |
| 20260509212214 | 71 | 347 | 3.0 | 11.0 | 0.00 | 0.00 | 0.00 | 39 | 1010.0 |
| 20260509211503 | 72 | 329 | 4.0 | 11.0 | 0.00 | 0.00 | 0.00 | 39 | 1009.8 |
| 20260509211003 | 72 | 328 | 3.0 | 10.0 | 0.00 | 0.00 | 0.00 | 41 | 1009.8 |
| 20260509210503 | 71 | 4 | 3.0 | 9.0 | 0.00 | 0.00 | 0.00 | 40 | 1009.7 |
| 20260509210004 | 71 | 4 | 4.0 | 13.0 | 0.00 | 0.00 | 0.00 | 39 | 1009.6 |
| 20260509205503 | 72 | 7 | 5.0 | 13.0 | 0.00 | 0.00 | 0.00 | 38 | 1009.7 |
| 20260509205214 | 72 | 12 | 5.0 | 13.0 | 0.00 | 0.00 | 0.00 | 37 | 1009.6 |
| 20260509204503 | 73 | 2 | 4.0 | 16.0 | 0.00 | 0.00 | 0.00 | 38 | 1009.4 |
| 20260509204214 | 73 | 4 | 4.0 | 16.0 | 0.00 | 0.00 | 0.00 | 38 | 1009.3 |
| 20260509203713 | 73 | 19 | 5.0 | 16.0 | 0.00 | 0.00 | 0.00 | 41 | 1009.2 |
| 20260509203004 | 74 | 32 | 5.0 | 13.0 | 0.00 | 0.00 | 0.00 | 36 | 1009.1 |
| 20260509202503 | 75 | 39 | 6.0 | 16.0 | 0.00 | 0.00 | 0.00 | 34 | 1008.9 |
| 20260509202003 | 76 | 39 | 6.0 | 16.0 | 0.00 | 0.00 | 0.00 | 37 | 1008.7 |
| 20260509201503 | 76 | 35 | 4.0 | 12.0 | 0.00 | 0.00 | 0.00 | 34 | 1008.7 |
| 20260509201003 | 76 | 31 | 5.0 | 16.0 | 0.00 | 0.00 | 0.00 | 34 | 1008.6 |
| 20260509200503 | 75 | 37 | 7.0 | 16.0 | 0.00 | 0.00 | 0.00 | 33 | 1008.4 |
| 20260509200003 | 76 | 39 | 7.0 | 16.0 | 0.00 | 0.00 | 0.00 | 31 | 1008.4 |
| 20260509195503 | 76 | 38 | 6.0 | 17.0 | 0.00 | 0.00 | 0.00 | 36 | 1008.4 |
| 20260509195003 | 76 | 39 | 4.0 | 17.0 | 0.00 | 0.00 | 0.00 | 29 | 1008.3 |
| 20260509194503 | 76 | 46 | 3.0 | 7.0 | 0.00 | 0.00 | 0.00 | 26 | 1008.2 |
| 20260509194003 | 76 | 61 | 3.0 | 12.0 | 0.00 | 0.00 | 0.00 | 27 | 1008.2 |
| 20260509193712 | 76 | 52 | 3.0 | 12.0 | 0.00 | 0.00 | 0.00 | 35 | 1008.1 |
| 20260509193003 | 76 | 8 | 3.0 | 9.0 | 0.00 | 0.00 | 0.00 | 29 | 1008.1 |
| 20260509192503 | 75 | 48 | 3.0 | 8.0 | 0.00 | 0.00 | 0.00 | 28 | 1008.1 |
| 20260509192213 | 75 | 46 | 3.0 | 8.0 | 0.00 | 0.00 | 0.00 | 28 | 1008.2 |
| 20260509191503 | 76 | 17 | 4.0 | 13.0 | 0.00 | 0.00 | 0.00 | 32 | 1008.1 |
| 20260509191003 | 76 | 25 | 4.0 | 14.0 | 0.00 | 0.00 | 0.00 | 28 | 1008.1 |
| 20260509190503 | 77 | 30 | 3.0 | 14.0 | 0.00 | 0.00 | 0.00 | 27 | 1008.1 |
| 20260509190003 | 77 | 24 | 2.0 | 6.0 | 0.00 | 0.00 | 0.00 | 27 | 1008.0 |
| 20260509185503 | 77 | 347 | 3.0 | 7.0 | 0.00 | 0.00 | 0.00 | 27 | 1008.1 |
| 20260509185213 | 77 | 304 | 2.0 | 9.0 | 0.00 | 0.00 | 0.00 | 29 | 1008.1 |
| 20260509184503 | 76 | 289 | 3.0 | 9.0 | 0.00 | 0.00 | 0.00 | 26 | 1008.0 |
| 20260509184003 | 76 | 317 | 4.0 | 10.0 | 0.00 | 0.00 | 0.00 | 30 | 1008.0 |
| 20260509183714 | 76 | 314 | 4.0 | 10.0 | 0.00 | 0.00 | 0.00 | 28 | 1008.1 |
| 20260509183003 | 76 | 323 | 2.0 | 6.0 | 0.00 | 0.00 | 0.00 | 27 | 1008.2 |
| 20260509182503 | 75 | 36 | 2.0 | 7.0 | 0.00 | 0.00 | 0.00 | 30 | 1008.2 |
| 20260509182003 | 75 | 34 | 3.0 | 10.0 | 0.00 | 0.00 | 0.00 | 29 | 1008.2 |
| 20260509181503 | 74 | 9 | 4.0 | 10.0 | 0.00 | 0.00 | 0.00 | 29 | 1008.1 |
| 20260509181003 | 74 | 31 | 4.0 | 12.0 | 0.00 | 0.00 | 0.00 | 29 | 1008.0 |
| 20260509180714 | 74 | 37 | 3.0 | 12.0 | 0.00 | 0.00 | 0.00 | 28 | 1008.0 |
| 20260509180003 | 74 | 3 | 2.0 | 8.0 | 0.00 | 0.00 | 0.00 | 30 | 1007.9 |
| 20260509175504 | 74 | 2 | 2.0 | 9.0 | 0.00 | 0.00 | 0.00 | 29 | 1007.9 |
| 20260509175003 | 75 | 304 | 3.0 | 9.0 | 0.00 | 0.00 | 0.00 | 30 | 1007.9 |
| 20260509174714 | 75 | 274 | 3.0 | 9.0 | 0.00 | 0.00 | 0.00 | 29 | 1008.0 |
| 20260509174003 | 74 | 345 | 4.0 | 11.0 | 0.00 | 0.00 | 0.00 | 29 | 1007.9 |
| 20260509173503 | 74 | 22 | 4.0 | 11.0 | 0.00 | 0.00 | 0.00 | 32 | 1007.9 |
| 20260509173003 | 75 | 336 | 3.0 | 9.0 | 0.00 | 0.00 | 0.00 | 31 | 1007.8 |
| 20260509172503 | 74 | 322 | 2.0 | 9.0 | 0.00 | 0.00 | 0.00 | 33 | 1008.0 |
| 20260509172003 | 74 | 345 | 2.0 | 7.0 | 0.00 | 0.00 | 0.00 | 32 | 1008.1 |
| 20260509171503 | 74 | 355 | 2.0 | 6.0 | 0.00 | 0.00 | 0.00 | 30 | 1008.1 |
| 20260509171003 | 73 | 17 | 2.0 | 8.0 | 0.00 | 0.00 | 0.00 | 31 | 1008.1 |
| 20260509170504 | 73 | 41 | 2.0 | 8.0 | 0.00 | 0.00 | 0.00 | 36 | 1008.1 |
| 20260509170212 | 73 | 46 | 2.0 | 6.0 | 0.00 | 0.00 | 0.00 | 30 | 1008.1 |
| 20260509165503 | 72 | 58 | 3.0 | 10.0 | 0.00 | 0.00 | 0.00 | 31 | 1008.2 |
| 20260509165004 | 72 | 52 | 4.0 | 10.0 | 0.00 | 0.00 | 0.00 | 35 | 1008.1 |
| 20260509164503 | 72 | 33 | 3.0 | 8.0 | 0.00 | 0.00 | 0.00 | 31 | 1008.2 |
| 20260509164003 | 72 | 340 | 3.0 | 8.0 | 0.00 | 0.00 | 0.00 | 33 | 1008.3 |
| 20260509163503 | 72 | 325 | 3.0 | 8.0 | 0.00 | 0.00 | 0.00 | 33 | 1008.2 |
| 20260509163003 | 71 | 315 | 3.0 | 8.0 | 0.00 | 0.00 | 0.00 | 32 | 1008.0 |
| 20260509162503 | 71 | 328 | 2.0 | 7.0 | 0.00 | 0.00 | 0.00 | 35 | 1008.0 |
| 20260509162003 | 71 | 330 | 2.0 | 6.0 | 0.00 | 0.00 | 0.00 | 33 | 1007.9 |
| 20260509161503 | 70 | 9 | 3.0 | 10.0 | 0.00 | 0.00 | 0.00 | 34 | 1008.0 |
| 20260509161003 | 70 | 32 | 3.0 | 10.0 | 0.00 | 0.00 | 0.00 | 35 | 1007.9 |
| 20260509160503 | 69 | 30 | 3.0 | 12.0 | 0.00 | 0.00 | 0.00 | 42 | 1007.9 |
| 20260509160214 | 69 | 38 | 4.0 | 12.0 | 0.00 | 0.00 | 0.00 | 38 | 1008.0 |
| 20260509155503 | 69 | 34 | 3.0 | 11.0 | 0.00 | 0.00 | 0.00 | 36 | 1008.1 |
| 20260509155003 | 69 | 2 | 3.0 | 9.0 | 0.00 | 0.00 | 0.00 | 36 | 1008.2 |
| 20260509154503 | 69 | 327 | 3.0 | 7.0 | 0.00 | 0.00 | 0.00 | 39 | 1008.1 |
| 20260509154003 | 69 | 322 | 2.0 | 7.0 | 0.00 | 0.00 | 0.00 | 37 | 1008.3 |
| 20260509153503 | 68 | 316 | 2.0 | 10.0 | 0.00 | 0.00 | 0.00 | 36 | 1008.3 |
| 20260509153003 | 68 | 325 | 3.0 | 10.0 | 0.00 | 0.00 | 0.00 | 40 | 1008.6 |
| 20260509152503 | 68 | 312 | 3.0 | 12.0 | 0.00 | 0.00 | 0.00 | 39 | 1008.4 |
| 20260509152003 | 68 | 295 | 3.0 | 12.0 | 0.00 | 0.00 | 0.00 | 40 | 1008.4 |
| 20260509151503 | 68 | 286 | 3.0 | 9.0 | 0.00 | 0.00 | 0.00 | 38 | 1008.3 |
| 20260509151214 | 68 | 277 | 3.0 | 9.0 | 0.00 | 0.00 | 0.00 | 39 | 1008.2 |
| 20260509150713 | 68 | 286 | 3.0 | 8.0 | 0.00 | 0.00 | 0.00 | 38 | 1008.1 |
| 20260509150003 | 67 | 256 | 2.0 | 6.0 | 0.00 | 0.00 | 0.00 | 44 | 1007.8 |
| 20260509145503 | 67 | 244 | 2.0 | 7.0 | 0.00 | 0.00 | 0.00 | 39 | 1007.2 |
| 20260509145213 | 66 | 239 | 3.0 | 8.0 | 0.00 | 0.00 | 0.00 | 40 | 1007.2 |
| 20260509144504 | 66 | 240 | 3.0 | 8.0 | 0.00 | 0.00 | 0.00 | 41 | 1007.2 |
| 20260509144214 | 65 | 245 | 2.0 | 7.0 | 0.00 | 0.00 | 0.00 | 44 | 1007.1 |
| 20260509143715 | 65 | 247 | 2.0 | 5.0 | 0.00 | 0.00 | 0.00 | 42 | 1007.2 |
| 20260509143003 | 65 | 235 | 2.0 | 5.0 | 0.00 | 0.00 | 0.00 | 43 | 1007.3 |
| 20260509142712 | 65 | 230 | 2.0 | 5.0 | 0.00 | 0.00 | 0.00 | 44 | 1007.3 |
| 20260509142003 | 64 | 234 | 3.0 | 6.0 | 0.00 | 0.00 | 0.00 | 45 | 1007.3 |
| 20260509141503 | 63 | 219 | 3.0 | 5.0 | 0.00 | 0.00 | 0.00 | 46 | 1007.4 |
| 20260509141003 | 62 | 227 | 2.0 | 5.0 | 0.00 | 0.00 | 0.00 | 48 | 1007.4 |
| 20260509140503 | 61 | 232 | 2.0 | 5.0 | 0.00 | 0.00 | 0.00 | 52 | 1007.3 |
| 20260509140003 | 60 | 242 | 2.0 | 5.0 | 0.00 | 0.00 | 0.00 | 52 | 1007.4 |
| 20260509135503 | 59 | 267 | 2.0 | 4.0 | 0.00 | 0.00 | 0.00 | 59 | 1007.3 |
| 20260509135003 | 59 | 267 | 2.0 | 4.0 | 0.00 | 0.00 | 0.00 | 58 | 1007.3 |
| 20260509134503 | 58 | 269 | 1.0 | 2.0 | 0.00 | 0.00 | 0.00 | 59 | 1007.3 |
| 20260509134003 | 58 | 270 | 1.0 | 2.0 | 0.00 | 0.00 | 0.00 | 58 | 1007.3 |
| 20260509133503 | 58 | 270 | 1.0 | 3.0 | 0.00 | 0.00 | 0.00 | 59 | 1007.2 |
| 20260509133003 | 57 | 271 | 1.0 | 3.0 | 0.00 | 0.00 | 0.00 | 59 | 1007.2 |
| 20260509132503 | 57 | 274 | 1.0 | 2.0 | 0.00 | 0.00 | 0.00 | 59 | 1007.1 |
| 20260509132003 | 56 | 274 | 1.0 | 2.0 | 0.00 | 0.00 | 0.00 | 60 | 1007.2 |
| 20260509131714 | 55 | 274 | 1.0 | 2.0 | 0.00 | 0.00 | 0.00 | 60 | 1007.3 |
| 20260509131004 | 54 | 275 | 1.0 | 3.0 | 0.00 | 0.00 | 0.00 | 61 | 1007.2 |
| 20260509130503 | 54 | 276 | 1.0 | 3.0 | 0.00 | 0.00 | 0.00 | 62 | 1007.3 |
| 20260509130003 | 53 | 279 | 1.0 | 3.0 | 0.00 | 0.00 | 0.00 | 61 | 1007.2 |
| 20260509125503 | 52 | 284 | 1.0 | 4.0 | 0.00 | 0.00 | 0.00 | 63 | 1007.2 |
| 20260509125213 | 52 | 285 | 1.0 | 4.0 | 0.00 | 0.00 | 0.00 | 62 | 1007.2 |
| 20260509124714 | 51 | 286 | 1.0 | 4.0 | 0.00 | 0.00 | 0.00 | 63 | 1007.3 |
| 20260509124004 | 51 | 292 | 1.0 | 4.0 | 0.00 | 0.00 | 0.00 | 65 | 1007.2 |
| 20260509123714 | 50 | 295 | 1.0 | 3.0 | 0.00 | 0.00 | 0.00 | 64 | 1007.2 |
| 20260509123003 | 50 | 295 | 1.0 | 4.0 | 0.00 | 0.00 | 0.00 | 65 | 1007.1 |
| 20260509122503 | 49 | 296 | 1.0 | 4.0 | 0.00 | 0.00 | 0.00 | 67 | 1007.0 |
| 20260509122003 | 49 | 296 | 1.0 | 3.0 | 0.00 | 0.00 | 0.00 | 67 | 1007.0 |
| 20260509121503 | 49 | 296 | 1.0 | 2.0 | 0.00 | 0.00 | 0.00 | 69 | 1007.0 |
| 20260509121003 | 48 | 296 | 1.0 | 2.0 | 0.00 | 0.00 | 0.00 | 69 | 1007.2 |
| 20260509120503 | 48 | 296 | 0.0 | 2.0 | 0.00 | 0.00 | 0.00 | 69 | 1007.0 |
| 20260509120003 | 48 | 296 | 0.0 | 2.0 | 0.00 | 0.00 | 0.00 | 70 | 1007.0 |
| 20260509115503 | 48 | 0 | 0.0 | 1.0 | 0.00 | 0.00 | 0.00 | 71 | 1007.0 |
| 20260509115003 | 47 | 0 | 0.0 | 0.0 | 0.00 | 0.00 | 0.00 | 70 | 1006.9 |
| 20260509114503 | 47 | 0 | 0.0 | 0.0 | 0.00 | 0.00 | 0.00 | 70 | 1006.8 |
| 20260509114005 | 47 | 0 | 0.0 | 0.0 | 0.00 | 0.00 | 0.00 | 69 | 1006.7 |
| 20260509113503 | 47 | 0 | 0.0 | 0.0 | 0.00 | 0.00 | 0.00 | 69 | 1006.7 |
| 20260509113003 | 47 | 297 | 0.0 | 1.0 | 0.00 | 0.00 | 0.00 | 70 | 1006.7 |
| 20260509112503 | 47 | 297 | 0.0 | 1.0 | 0.00 | 0.00 | 0.00 | 69 | 1006.7 |
| 20260509112003 | 47 | 0 | 0.0 | 0.0 | 0.00 | 0.00 | 0.00 | 68 | 1006.6 |
| 20260509111503 | 48 | 0 | 0.0 | 0.0 | 0.00 | 0.00 | 0.00 | 67 | 1006.6 |
| 20260509111003 | 48 | 0 | 0.0 | 0.0 | 0.00 | 0.00 | 0.00 | 68 | 1006.5 |
| 20260509110503 | 48 | 0 | 0.0 | 0.0 | 0.00 | 0.00 | 0.00 | 67 | 1006.5 |
| 20260509110004 | 48 | 0 | 0.0 | 0.0 | 0.00 | 0.00 | 0.00 | 66 | 1006.5 |
| 20260509105503 | 48 | 0 | 0.0 | 1.0 | 0.00 | 0.00 | 0.00 | 66 | 1006.5 |
| 20260509105214 | 48 | 0 | 0.0 | 1.0 | 0.00 | 0.00 | 0.00 | 66 | 1006.5 |
| 20260509104503 | 49 | 297 | 0.0 | 2.0 | 0.00 | 0.00 | 0.00 | 64 | 1006.6 |
| 20260509104003 | 49 | 297 | 1.0 | 2.0 | 0.00 | 0.00 | 0.00 | 65 | 1006.6 |
| 20260509103503 | 49 | 299 | 2.0 | 4.0 | 0.00 | 0.00 | 0.00 | 66 | 1006.6 |
| 20260509103008 | 49 | 304 | 2.0 | 4.0 | 0.00 | 0.00 | 0.00 | 66 | 1006.6 |
| 20260509102503 | 49 | 310 | 1.0 | 4.0 | 0.00 | 0.00 | 0.00 | 66 | 1006.6 |
| 20260509102003 | 49 | 311 | 1.0 | 3.0 | 0.00 | 0.00 | 0.00 | 66 | 1006.6 |
| 20260509101003 | 49 | 314 | 0.0 | 2.0 | 0.00 | 0.00 | 0.00 | 66 | 1006.6 |
| 20260509100503 | 49 | 0 | 0.0 | 0.0 | 0.00 | 0.00 | 0.00 | 65 | 1006.5 |
| 20260509100004 | 49 | 0 | 0.0 | 0.0 | 0.00 | 0.00 | 0.00 | 65 | 1006.6 |
| 20260509095503 | 49 | 0 | 0.0 | 0.0 | 0.00 | 0.00 | 0.00 | 64 | 1006.7 |
| 20260509095214 | 49 | 0 | 0.0 | 0.0 | 0.00 | 0.00 | 0.00 | 65 | 1006.7 |
| 20260509094503 | 49 | 0 | 0.0 | 0.0 | 0.00 | 0.00 | 0.00 | 65 | 1006.7 |
| 20260509094003 | 49 | 0 | 0.0 | 0.0 | 0.00 | 0.00 | 0.00 | 64 | 1006.7 |
| 20260509093505 | 49 | 0 | 0.0 | 0.0 | 0.00 | 0.01 | 0.00 | 64 | 1006.6 |
| 20260509093003 | 50 | 0 | 0.0 | 0.0 | 0.00 | 0.01 | 0.00 | 64 | 1006.7 |
| 20260509092713 | 50 | 0 | 0.0 | 0.0 | 0.00 | 0.01 | 0.00 | 64 | 1006.7 |
| 20260509092003 | 50 | 0 | 0.0 | 0.0 | 0.00 | 0.01 | 0.00 | 64 | 1006.7 |
| 20260509091503 | 50 | 0 | 0.0 | 0.0 | 0.00 | 0.01 | 0.00 | 62 | 1006.7 |
| 20260509091003 | 50 | 0 | 0.0 | 0.0 | 0.00 | 0.01 | 0.00 | 62 | 1006.6 |
| 20260509090504 | 50 | 0 | 0.0 | 0.0 | 0.00 | 0.01 | 0.00 | 61 | 1006.6 |
| 20260509090003 | 50 | 0 | 0.0 | 0.0 | 0.00 | 0.01 | 0.00 | 61 | 1006.6 |
| 20260509085503 | 51 | 0 | 0.0 | 0.0 | 0.00 | 0.01 | 0.00 | 61 | 1006.6 |
| 20260509085003 | 51 | 0 | 0.0 | 0.0 | 0.00 | 0.01 | 0.00 | 61 | 1006.5 |
| 20260509084503 | 51 | 0 | 0.0 | 0.0 | 0.00 | 0.01 | 0.00 | 61 | 1006.5 |
| 20260509084003 | 51 | 0 | 0.0 | 0.0 | 0.00 | 0.01 | 0.00 | 61 | 1006.4 |
| 20260509083503 | 51 | 0 | 0.0 | 0.0 | 0.00 | 0.01 | 0.00 | 59 | 1006.4 |
| 20260509083003 | 52 | 0 | 0.0 | 0.0 | 0.00 | 0.01 | 0.00 | 59 | 1006.4 |
| 20260509082503 | 52 | 0 | 0.0 | 0.0 | 0.00 | 0.01 | 0.00 | 58 | 1006.4 |
| 20260509082003 | 52 | 0 | 0.0 | 0.0 | 0.00 | 0.01 | 0.00 | 57 | 1006.4 |
| 20260509081503 | 52 | 0 | 0.0 | 0.0 | 0.00 | 0.01 | 0.00 | 56 | 1006.5 |
| 20260509081004 | 53 | 0 | 0.0 | 0.0 | 0.00 | 0.01 | 0.00 | 56 | 1006.4 |
| 20260509080503 | 53 | 0 | 0.0 | 0.0 | 0.00 | 0.01 | 0.00 | 55 | 1006.4 |
| 20260509080005 | 54 | 0 | 0.0 | 0.0 | 0.00 | 0.01 | 0.00 | 55 | 1006.4 |
| 20260509075503 | 54 | 0 | 0.0 | 0.0 | 0.00 | 0.01 | 0.00 | 54 | 1006.4 |
| 20260509075003 | 54 | 0 | 0.0 | 0.0 | 0.00 | 0.01 | 0.00 | 54 | 1006.3 |
| 20260509074714 | 54 | 0 | 0.0 | 0.0 | 0.00 | 0.01 | 0.00 | 53 | 1006.4 |
| 20260509074213 | 55 | 0 | 0.0 | 0.0 | 0.00 | 0.01 | 0.00 | 52 | 1006.5 |
| 20260509073503 | 55 | 0 | 0.0 | 0.0 | 0.00 | 0.01 | 0.00 | 51 | 1006.5 |
| 20260509073003 | 56 | 0 | 0.0 | 0.0 | 0.00 | 0.01 | 0.00 | 51 | 1006.6 |
| 20260509072503 | 56 | 0 | 0.0 | 0.0 | 0.00 | 0.01 | 0.00 | 50 | 1006.5 |
| 20260509072003 | 57 | 0 | 0.0 | 0.0 | 0.00 | 0.01 | 0.00 | 48 | 1006.6 |
| 20260509071714 | 57 | 0 | 0.0 | 0.0 | 0.00 | 0.01 | 0.00 | 48 | 1006.6 |
| 20260509071003 | 58 | 0 | 0.0 | 0.0 | 0.00 | 0.01 | 0.00 | 47 | 1006.6 |
| 20260509070503 | 58 | 0 | 0.0 | 0.0 | 0.00 | 0.01 | 0.00 | 46 | 1006.6 |
| 20260509070003 | 58 | 315 | 0.0 | 2.0 | 0.00 | 0.01 | 0.00 | 46 | 1006.6 |
| 20260509065503 | 58 | 315 | 0.0 | 2.0 | 0.00 | 0.01 | 0.00 | 45 | 1006.6 |
| 20260509065003 | 59 | 314 | 0.0 | 1.0 | 0.00 | 0.01 | 0.00 | 45 | 1006.6 |
| 20260509064503 | 59 | 314 | 0.0 | 1.0 | 0.00 | 0.01 | 0.00 | 43 | 1006.6 |
| 20260509064003 | 59 | 316 | 0.0 | 1.0 | 0.00 | 0.01 | 0.00 | 44 | 1006.7 |
| 20260509063503 | 60 | 324 | 0.0 | 3.0 | 0.00 | 0.01 | 0.00 | 43 | 1006.8 |
| 20260509063008 | 60 | 337 | 0.0 | 3.0 | 0.00 | 0.01 | 0.00 | 43 | 1006.7 |
| 20260509062713 | 60 | 340 | 0.0 | 3.0 | 0.00 | 0.01 | 0.00 | 42 | 1006.7 |
| 20260509062003 | 61 | 348 | 0.0 | 2.0 | 0.00 | 0.01 | 0.00 | 42 | 1006.8 |
| 20260509061504 | 61 | 348 | 0.0 | 2.0 | 0.00 | 0.01 | 0.00 | 41 | 1006.8 |
| 20260509061003 | 61 | 348 | 0.0 | 2.0 | 0.00 | 0.01 | 0.00 | 41 | 1006.6 |
| 20260509060503 | 62 | 348 | 1.0 | 3.0 | 0.00 | 0.01 | 0.00 | 41 | 1006.7 |
| 20260509060004 | 62 | 351 | 1.0 | 3.0 | 0.00 | 0.01 | 0.00 | 40 | 1006.7 |
| 20260509055503 | 62 | 351 | 1.0 | 3.0 | 0.00 | 0.01 | 0.00 | 39 | 1006.7 |
| 20260509055003 | 63 | 352 | 1.0 | 3.0 | 0.00 | 0.01 | 0.00 | 39 | 1006.7 |
| 20260509054713 | 63 | 343 | 1.0 | 3.0 | 0.00 | 0.01 | 0.00 | 40 | 1006.7 |
| 20260509054003 | 63 | 297 | 1.0 | 6.0 | 0.00 | 0.01 | 0.00 | 39 | 1006.6 |
| 20260509053503 | 63 | 299 | 1.0 | 4.0 | 0.00 | 0.01 | 0.00 | 40 | 1006.6 |
| 20260509053003 | 63 | 337 | 1.0 | 3.0 | 0.00 | 0.01 | 0.00 | 39 | 1006.5 |
| 20260509052713 | 64 | 341 | 1.0 | 4.0 | 0.00 | 0.01 | 0.00 | 38 | 1006.5 |
| 20260509052003 | 63 | 332 | 1.0 | 6.0 | 0.00 | 0.01 | 0.00 | 38 | 1006.4 |
| 20260509051503 | 63 | 328 | 1.0 | 3.0 | 0.00 | 0.01 | 0.00 | 39 | 1006.5 |
| 20260509051003 | 63 | 311 | 1.0 | 5.0 | 0.00 | 0.01 | 0.00 | 39 | 1006.4 |
| 20260509050503 | 63 | 266 | 1.0 | 5.0 | 0.00 | 0.01 | 0.00 | 40 | 1006.3 |
| 20260509050004 | 63 | 251 | 1.0 | 3.0 | 0.00 | 0.01 | 0.00 | 41 | 1006.3 |
| 20260509045503 | 62 | 271 | 1.0 | 3.0 | 0.00 | 0.01 | 0.01 | 40 | 1006.3 |
| 20260509045003 | 62 | 293 | 1.0 | 4.0 | 0.00 | 0.01 | 0.01 | 41 | 1006.3 |
| 20260509044503 | 62 | 299 | 1.0 | 4.0 | 0.00 | 0.01 | 0.01 | 41 | 1006.3 |
| 20260509044003 | 62 | 302 | 1.0 | 3.0 | 0.00 | 0.01 | 0.01 | 42 | 1006.3 |
| 20260509043503 | 62 | 303 | 0.0 | 3.0 | 0.00 | 0.01 | 0.01 | 41 | 1006.2 |
| 20260509043004 | 62 | 305 | 0.0 | 3.0 | 0.00 | 0.01 | 0.01 | 41 | 1006.2 |
| 20260509042504 | 62 | 306 | 0.0 | 3.0 | 0.00 | 0.01 | 0.01 | 41 | 1006.2 |
| 20260509042003 | 62 | 307 | 0.0 | 3.0 | 0.00 | 0.01 | 0.01 | 41 | 1006.2 |
| 20260509041503 | 62 | 305 | 1.0 | 3.0 | 0.00 | 0.01 | 0.01 | 40 | 1006.1 |
| 20260509041003 | 62 | 304 | 1.0 | 3.0 | 0.00 | 0.01 | 0.01 | 41 | 1006.1 |
| 20260509040713 | 62 | 299 | 0.0 | 2.0 | 0.00 | 0.01 | 0.01 | 42 | 1006.1 |
| 20260509040003 | 62 | 299 | 0.0 | 1.0 | 0.00 | 0.01 | 0.01 | 40 | 1006.1 |
| 20260509035503 | 62 | 0 | 0.0 | 1.0 | 0.00 | 0.01 | 0.01 | 42 | 1006.1 |
| 20260509035003 | 63 | 0 | 0.0 | 1.0 | 0.00 | 0.01 | 0.01 | 42 | 1006.1 |
| 20260509034503 | 63 | 0 | 0.0 | 1.0 | 0.00 | 0.01 | 0.01 | 41 | 1006.0 |
| 20260509034003 | 63 | 299 | 0.0 | 3.0 | 0.00 | 0.01 | 0.01 | 40 | 1006.0 |
| 20260509033503 | 63 | 299 | 1.0 | 3.0 | 0.00 | 0.01 | 0.01 | 40 | 1005.9 |
| 20260509033213 | 63 | 299 | 1.0 | 3.0 | 0.00 | 0.01 | 0.01 | 40 | 1006.0 |
| 20260509032504 | 64 | 298 | 0.0 | 1.0 | 0.00 | 0.01 | 0.01 | 40 | 1005.9 |
| 20260509032003 | 64 | 0 | 0.0 | 1.0 | 0.00 | 0.01 | 0.01 | 39 | 1005.8 |
| 20260509031503 | 64 | 298 | 0.0 | 2.0 | 0.00 | 0.01 | 0.01 | 38 | 1005.9 |
| 20260509031003 | 65 | 298 | 1.0 | 2.0 | 0.00 | 0.01 | 0.01 | 38 | 1005.8 |
| 20260509030503 | 65 | 298 | 1.0 | 2.0 | 0.00 | 0.01 | 0.01 | 37 | 1005.6 |
| 20260509030003 | 65 | 298 | 0.0 | 2.0 | 0.00 | 0.01 | 0.01 | 37 | 1005.5 |
| 20260509025503 | 66 | 298 | 0.0 | 1.0 | 0.00 | 0.01 | 0.01 | 36 | 1005.5 |
| 20260509025003 | 66 | 298 | 0.0 | 3.0 | 0.00 | 0.01 | 0.01 | 35 | 1005.4 |
| 20260509024503 | 66 | 298 | 0.0 | 3.0 | 0.00 | 0.01 | 0.01 | 34 | 1005.4 |
| 20260509024003 | 67 | 314 | 0.0 | 3.0 | 0.00 | 0.01 | 0.01 | 34 | 1005.4 |
| 20260509023714 | 67 | 315 | 1.0 | 3.0 | 0.00 | 0.01 | 0.01 | 34 | 1005.3 |
| 20260509023003 | 68 | 319 | 0.0 | 2.0 | 0.00 | 0.01 | 0.01 | 33 | 1005.3 |
| 20260509022503 | 68 | 319 | 0.0 | 2.0 | 0.00 | 0.01 | 0.01 | 32 | 1005.1 |
| 20260509022003 | 68 | 319 | 0.0 | 2.0 | 0.00 | 0.01 | 0.01 | 31 | 1005.0 |
| 20260509021503 | 69 | 319 | 0.0 | 1.0 | 0.00 | 0.01 | 0.01 | 30 | 1005.0 |
| 20260509021003 | 70 | 319 | 0.0 | 1.0 | 0.00 | 0.01 | 0.01 | 29 | 1004.9 |
| 20260509020503 | 70 | 319 | 0.0 | 1.0 | 0.00 | 0.01 | 0.01 | 29 | 1004.9 |
| 20260509020213 | 71 | 319 | 0.0 | 1.0 | 0.00 | 0.01 | 0.01 | 29 | 1004.9 |
| 20260509015503 | 71 | 319 | 0.0 | 1.0 | 0.00 | 0.01 | 0.01 | 28 | 1004.8 |
| 20260509015004 | 72 | 319 | 0.0 | 3.0 | 0.00 | 0.01 | 0.01 | 27 | 1004.8 |
| 20260509014714 | 72 | 305 | 0.0 | 3.0 | 0.00 | 0.01 | 0.01 | 28 | 1004.8 |
| 20260509014003 | 73 | 269 | 0.0 | 3.0 | 0.00 | 0.01 | 0.01 | 28 | 1004.7 |
| 20260509013503 | 73 | 261 | 0.0 | 3.0 | 0.00 | 0.01 | 0.01 | 27 | 1004.6 |
| 20260509013003 | 73 | 261 | 1.0 | 3.0 | 0.00 | 0.01 | 0.01 | 27 | 1004.6 |
| 20260509012503 | 74 | 265 | 1.0 | 6.0 | 0.00 | 0.01 | 0.01 | 27 | 1004.6 |
| 20260509012003 | 74 | 269 | 1.0 | 7.0 | 0.00 | 0.01 | 0.01 | 27 | 1004.5 |
| 20260509011503 | 74 | 278 | 1.0 | 7.0 | 0.00 | 0.01 | 0.01 | 26 | 1004.5 |
| 20260509011003 | 74 | 298 | 1.0 | 7.0 | 0.00 | 0.01 | 0.01 | 28 | 1004.5 |
| 20260509010503 | 75 | 298 | 1.0 | 3.0 | 0.00 | 0.01 | 0.01 | 27 | 1004.4 |
| 20260509010212 | 75 | 288 | 1.0 | 6.0 | 0.00 | 0.01 | 0.01 | 26 | 1004.4 |
| 20260509005503 | 75 | 296 | 1.0 | 6.0 | 0.00 | 0.01 | 0.01 | 26 | 1004.3 |
| 20260509005003 | 76 | 311 | 1.0 | 3.0 | 0.00 | 0.01 | 0.01 | 26 | 1004.3 |
| 20260509004503 | 76 | 318 | 1.0 | 9.0 | 0.00 | 0.01 | 0.01 | 26 | 1004.3 |
| 20260509004003 | 76 | 324 | 2.0 | 9.0 | 0.00 | 0.01 | 0.01 | 26 | 1004.2 |
| 20260509003503 | 76 | 288 | 2.0 | 9.0 | 0.00 | 0.01 | 0.01 | 26 | 1004.2 |
| 20260509003003 | 77 | 261 | 2.0 | 6.0 | 0.00 | 0.01 | 0.01 | 30 | 1004.2 |
| 20260509002713 | 77 | 257 | 2.0 | 4.0 | 0.00 | 0.01 | 0.01 | 30 | 1004.2 |
| 20260509002003 | 77 | 267 | 2.0 | 7.0 | 0.00 | 0.01 | 0.01 | 29 | 1004.1 |
| 20260509001503 | 77 | 256 | 3.0 | 7.0 | 0.00 | 0.01 | 0.01 | 30 | 1004.1 |
| 20260509001003 | 77 | 243 | 3.0 | 10.0 | 0.00 | 0.01 | 0.01 | 29 | 1004.0 |
| 20260509000503 | 77 | 251 | 4.0 | 10.0 | 0.00 | 0.01 | 0.01 | 27 | 1004.0 |
| 20260509000214 | 78 | 257 | 4.0 | 10.0 | 0.00 | 0.01 | 0.01 | 27 | 1004.1 |
| 20260508235503 | 78 | 265 | 5.0 | 13.0 | 0.00 | 0.01 | 0.01 | 26 | 1004.1 |
| 20260508235003 | 78 | 268 | 6.0 | 13.0 | 0.00 | 0.01 | 0.01 | 27 | 1004.1 |
| 20260508234504 | 78 | 264 | 6.0 | 13.0 | 0.00 | 0.01 | 0.01 | 26 | 1004.2 |
| 20260508234003 | 78 | 251 | 6.0 | 15.0 | 0.00 | 0.01 | 0.01 | 26 | 1004.1 |
| 20260508233503 | 78 | 251 | 5.0 | 15.0 | 0.00 | 0.01 | 0.01 | 26 | 1004.1 |
| 20260508233003 | 78 | 254 | 6.0 | 17.0 | 0.00 | 0.01 | 0.01 | 27 | 1004.2 |
| 20260508232503 | 78 | 251 | 6.0 | 17.0 | 0.00 | 0.01 | 0.01 | 25 | 1004.3 |
| 20260508232003 | 78 | 247 | 5.0 | 12.0 | 0.00 | 0.01 | 0.01 | 26 | 1004.2 |
| 20260508231504 | 78 | 237 | 6.0 | 12.0 | 0.00 | 0.01 | 0.01 | 26 | 1004.2 |
| 20260508231003 | 79 | 224 | 5.0 | 13.0 | 0.00 | 0.01 | 0.01 | 27 | 1004.2 |
| 20260508230503 | 79 | 222 | 6.0 | 13.0 | 0.00 | 0.01 | 0.01 | 26 | 1004.2 |
| 20260508230003 | 79 | 235 | 6.0 | 13.0 | 0.00 | 0.01 | 0.01 | 27 | 1004.2 |
| 20260508225503 | 79 | 244 | 6.0 | 13.0 | 0.00 | 0.01 | 0.01 | 27 | 1004.2 |
| 20260508225213 | 80 | 243 | 7.0 | 13.0 | 0.00 | 0.01 | 0.01 | 26 | 1004.3 |
| 20260508224503 | 80 | 251 | 5.0 | 13.0 | 0.00 | 0.01 | 0.01 | 27 | 1004.3 |
| 20260508224003 | 79 | 258 | 4.0 | 11.0 | 0.00 | 0.01 | 0.01 | 28 | 1004.4 |